Flag for U.S.A. Weather past 2 weeks in Boulder, Colorado, U.S.A.

Now
59 °F

Clear.


Feels Like: 58 °F
Forecast: 56 / 87 °F
Wind: 6 mph from West

Location: Broomfield / Jeffco

Current Time: Sep 1, 2015 at 12:34:58 AM

Latest Report: Aug 31, 2015 at 11:55 PM


Visibility: 10 mi

Pressure: 30.17 "Hg (24.89 "Hg at 1623m altitude)

Humidity: 82%

Dew point: 54 °F

Location of BoulderLocation

Historic Weather in Boulder — Graph

°F

Boulder temperature yesterday

Maximum temperature yesterday: 86 °F (at 2:47 PM)
Minimum temperature yesterday: 59 °F (at 11:16 PM)
Average temperature yesterday: 73 °F

Past Weeks' High & Low Weather Summary

 TemperatureHumidityPressure
High93 °F (Aug 21, 2:49 PM)94% (Aug 17, 4:35 AM)30.35 "Hg (Aug 17, 4:35 AM)
Low48 °F (Aug 19, 1:36 AM)10% (Aug 21, 1:47 PM)29.88 "Hg (Aug 21, 4:45 PM)
Average68 °F47%30.17 "Hg
* Reported Aug 16 11:16 PM — Aug 31 11:36 PM, Boulder, Weather by CustomWeather, © 2015

Note: Actual official high and low records may vary slightly from our data, if they occured in-between our weather recording intervals... More about our weather records

Advertising

Boulder weather history for previous 24 hours

 ConditionsComfort  
Time TempWeatherWind HumidityBarometerVisibility
11:36 PM
Mon, Aug 31
61 °FClear.9 mph83%30.17 "Hg10 mi
11:16 PM59 °FClear.10 mph88%30.18 "Hg10 mi
9:45 PM63 °FPassing clouds.No wind83%30.20 "Hg30 mi
8:45 PM64 °FPassing clouds.9 mph78%30.19 "Hg30 mi
7:45 PM66 °FPartly sunny.9 mph73%30.16 "Hg30 mi
6:45 PM68 °FPartly sunny.9 mph69%30.15 "Hg30 mi
4:51 PM64 °FLight rain. Cloudy.12 mph78%30.18 "Hg30 mi
3:45 PM68 °FThunderstorms. Broken clouds.33 mph60%30.13 "Hg30 mi
2:47 PM86 °FPartly sunny.9 mph20%30.10 "Hg50 mi
1:53 PM84 °FBroken clouds.8 mph23%30.12 "Hg50 mi
12:55 PM82 °FPartly sunny.6 mph25%30.13 "Hg50 mi
11:45 AM81 °FPartly sunny.3 mph28%30.15 "Hg50 mi
10:50 AM77 °FPartly sunny.5 mph34%30.16 "Hg50 mi
9:49 AM75 °FPartly sunny.6 mph39%30.15 "Hg50 mi
8:47 AM73 °FPartly sunny.5 mph38%30.13 "Hg50 mi
7:47 AM75 °FPartly sunny.12 mph34%30.11 "Hg50 mi
6:47 AM72 °FPartly cloudy.No wind41%30.10 "Hg60 mi
5:56 AM72 °FClear.No wind36%30.07 "Hg10 mi
5:36 AM73 °FClear.12 mph33%30.05 "Hg10 mi
5:16 AM73 °FClear.16 mph33%30.06 "Hg10 mi
4:56 AM73 °FClear.13 mph33%30.06 "Hg10 mi
4:36 AM73 °FClear.15 mph33%30.05 "Hg10 mi
4:16 AM73 °FClear.12 mph33%30.05 "Hg10 mi
3:56 AM73 °FClear.12 mph33%30.05 "Hg10 mi
3:35 AM73 °FClear.15 mph33%30.04 "Hg10 mi
3:16 AM73 °FClear.18 mph33%30.04 "Hg10 mi
2:56 AM73 °FClear.22 mph33%30.04 "Hg10 mi
2:36 AM73 °FClear.22 mph33%30.04 "Hg10 mi
2:16 AM75 °FClear.16 mph31%30.05 "Hg10 mi
1:56 AM73 °FClear.10 mph33%30.05 "Hg10 mi
1:36 AM72 °FClear.9 mph36%30.05 "Hg10 mi
1:16 AM73 °FClear.7 mph33%30.05 "Hg10 mi
12:56 AM73 °FClear.8 mph33%30.05 "Hg10 mi
12:35 AM73 °FClear.8 mph33%30.04 "Hg10 mi
12:16 AM77 °FClear.6 mph28%30.05 "Hg10 mi
Weather by CustomWeather, © 2015

See weather overviewHow to use our weather pages